• In United Kingdom
  • List of Countries
  • For 7 days
  • Water Temperature
  • Satellite Maps
  • Weather Map
  • Weather Widgets
  • user-avatar
    Login

    Hourly Weather Valcinets

    Today, 19 September, Wednesday

    Time Temperature Precipitation Wind Pressure Humidity
    00:00 +17°C° 0 mm 2 mps 749 mmHg 62%
    01:00 +16°C° 0 mm 2 mps 749 mmHg 63%
    02:00 +16°C° 0 mm 2 mps 749 mmHg 64%
    03:00 +15°C° 0 mm 2 mps 749 mmHg 65%
    04:00 +15°C° 0 mm 2 mps 749 mmHg 66%
    05:00 +14°C° 0 mm 1 mps 749 mmHg 67%
    06:00 +16°C° 0 mm 2 mps 749 mmHg 62%
    07:00 +17°C° 0 mm 2 mps 749 mmHg 58%
    08:00 +19°C° 0 mm 2 mps 750 mmHg 52%
    09:00 +21°C° 0 mm 3 mps 750 mmHg 46%
    10:00 +24°C° 0 mm 3 mps 750 mmHg 41%
    11:00 +26°C° 0 mm 4 mps 750 mmHg 36%
    12:00 +26°C° 0 mm 4 mps 750 mmHg 34%
    13:00 +27°C° 0 mm 3 mps 749 mmHg 31%
    14:00 +28°C° 0 mm 3 mps 749 mmHg 29%
    15:00 +28°C° 0 mm 3 mps 749 mmHg 32%
    16:00 +27°C° 0 mm 3 mps 749 mmHg 34%
    17:00 +27°C° 0 mm 2 mps 748 mmHg 36%
    18:00 +25°C° 0 mm 2 mps 748 mmHg 39%
    19:00 +23°C° 0 mm 2 mps 748 mmHg 42%
    20:00 +20°C° 0 mm 2 mps 748 mmHg 45%
    21:00 +19°C° 0 mm 2 mps 749 mmHg 46%
    22:00 +18°C° 0 mm 2 mps 749 mmHg 48%
    23:00 +17°C° 0 mm 2 mps 749 mmHg 49%

    Tomorrow, 20 September, Thursday

    Time Temperature Precipitation Wind Pressure Humidity
    00:00 +17°C° 0 mm 2 mps 749 mmHg 51%
    01:00 +16°C° 0 mm 2 mps 749 mmHg 52%
    02:00 +16°C° 0 mm 1 mps 749 mmHg 54%
    03:00 +15°C° 0 mm 1 mps 749 mmHg 55%
    04:00 +15°C° 0 mm 1 mps 749 mmHg 56%
    05:00 +15°C° 0 mm 1 mps 748 mmHg 58%
    06:00 +16°C° 0 mm 1 mps 749 mmHg 54%
    07:00 +19°C° 0 mm 1 mps 749 mmHg 51%
    08:00 +20°C° 0 mm 1 mps 749 mmHg 48%
    09:00 +21°C° 0 mm 2 mps 749 mmHg 43%
    10:00 +24°C° 0 mm 2 mps 749 mmHg 37%
    11:00 +26°C° 0 mm 3 mps 749 mmHg 32%
    12:00 +27°C° 0 mm 2 mps 748 mmHg 30%
    13:00 +28°C° 0 mm 2 mps 748 mmHg 28%
    14:00 +29°C° 0 mm 2 mps 748 mmHg 26%
    15:00 +28°C° 0 mm 2 mps 748 mmHg 28%
    16:00 +28°C° 0 mm 2 mps 748 mmHg 30%
    17:00 +27°C° 0 mm 1 mps 747 mmHg 32%
    18:00 +25°C° 0 mm 1 mps 747 mmHg 35%
    19:00 +23°C° 0 mm 1 mps 747 mmHg 37%
    20:00 +21°C° 0 mm 1 mps 747 mmHg 40%
    21:00 +21°C° 0 mm 1 mps 747 mmHg 42%
    22:00 +20°C° 0 mm 1 mps 747 mmHg 44%
    23:00 +20°C° 0 mm 1 mps 747 mmHg 45%

    Day after tomorrow, 21 September, Friday

    Time Temperature Precipitation Wind Pressure Humidity
    00:00 +19°C° 0 mm 1 mps 747 mmHg 47%
    01:00 +19°C° 0 mm 1 mps 747 mmHg 49%
    02:00 +18°C° 0 mm 1 mps 747 mmHg 50%
    03:00 +18°C° 0 mm 1 mps 747 mmHg 52%
    04:00 +16°C° 0 mm 0 mps 747 mmHg 53%
    05:00 +15°C° 0 mm 0 mps 747 mmHg 54%
    06:00 +19°C° 0 mm 1 mps 747 mmHg 51%
    07:00 +20°C° 0 mm 1 mps 747 mmHg 48%
    08:00 +22°C° 0 mm 1 mps 748 mmHg 45%
    09:00 +24°C° 0 mm 1 mps 748 mmHg 41%
    10:00 +26°C° 0 mm 2 mps 748 mmHg 36%
    11:00 +28°C° 0 mm 3 mps 748 mmHg 32%
    12:00 +28°C° 0 mm 3 mps 747 mmHg 30%
    13:00 +29°C° 0 mm 3 mps 747 mmHg 28%
    14:00 +30°C° 0 mm 3 mps 747 mmHg 26%
    15:00 +29°C° 0 mm 3 mps 747 mmHg 28%
    16:00 +29°C° 0 mm 2 mps 746 mmHg 30%
    17:00 +28°C° 0 mm 2 mps 746 mmHg 32%
    18:00 +26°C° 0 mm 2 mps 746 mmHg 35%
    19:00 +24°C° 0 mm 2 mps 746 mmHg 37%
    20:00 +21°C° 0 mm 2 mps 746 mmHg 40%
    21:00 +21°C° 0 mm 2 mps 746 mmHg 42%
    22:00 +20°C° 0 mm 2 mps 746 mmHg 44%
    23:00 +19°C° 0 mm 3 mps 746 mmHg 46%

    22 September, Saturday

    Time Temperature Precipitation Wind Pressure Humidity
    00:00 +19°C° 0 mm 2 mps 746 mmHg 47%
    01:00 +18°C° 0 mm 2 mps 746 mmHg 49%
    02:00 +18°C° 0 mm 2 mps 746 mmHg 51%
    03:00 +17°C° 0 mm 2 mps 746 mmHg 52%
    04:00 +17°C° 0 mm 2 mps 746 mmHg 54%
    05:00 +17°C° 0 mm 2 mps 745 mmHg 55%
    06:00 +18°C° 0 mm 2 mps 746 mmHg 53%
    07:00 +19°C° 0 mm 2 mps 746 mmHg 50%
    08:00 +20°C° 0 mm 2 mps 746 mmHg 48%
    09:00 +22°C° 0 mm 3 mps 746 mmHg 42%
    10:00 +26°C° 0 mm 3 mps 746 mmHg 36%
    11:00 +28°C° 0 mm 4 mps 746 mmHg 30%
    12:00 +29°C° 0 mm 4 mps 745 mmHg 29%
    13:00 +29°C° 0 mm 4 mps 745 mmHg 27%
    14:00 +30°C° 0 mm 4 mps 744 mmHg 25%
    15:00 +29°C° 0 mm 4 mps 744 mmHg 27%
    16:00 +29°C° 0 mm 3 mps 743 mmHg 29%
    17:00 +28°C° 0 mm 3 mps 743 mmHg 31%
    18:00 +26°C° 0 mm 3 mps 743 mmHg 34%
    19:00 +24°C° 0 mm 3 mps 743 mmHg 37%
    20:00 +21°C° 0 mm 3 mps 743 mmHg 39%
    21:00 +21°C° 0 mm 3 mps 743 mmHg 41%
    22:00 +20°C° 0 mm 4 mps 743 mmHg 43%
    23:00 +20°C° 0 mm 4 mps 742 mmHg 45%

    23 September, Sunday

    Time Temperature Precipitation Wind Pressure Humidity
    00:00 +19°C° 0 mm 4 mps 742 mmHg 50%
    01:00 +19°C° 0 mm 4 mps 742 mmHg 54%
    02:00 +18°C° 0 mm 4 mps 742 mmHg 58%
    03:00 +16°C° 0 mm 5 mps 743 mmHg 63%
    04:00 +15°C° 0 mm 6 mps 743 mmHg 67%
    05:00 +14°C° 0 mm 7 mps 744 mmHg 71%
    06:00 +14°C° 0.4 mm 7 mps 744 mmHg 73%
    07:00 +12°C° 0.4 mm 7 mps 745 mmHg 74%
    08:00 +11°C° 0.4 mm 7 mps 746 mmHg 76%
    09:00 +12°C° 0 mm 7 mps 746 mmHg 67%
    10:00 +15°C° 0 mm 7 mps 747 mmHg 59%
    11:00 +16°C° 0 mm 7 mps 747 mmHg 50%
    12:00 +17°C° 0 mm 6 mps 747 mmHg 45%
    13:00 +19°C° 0 mm 6 mps 747 mmHg 41%
    14:00 +20°C° 0 mm 5 mps 747 mmHg 37%
    15:00 +19°C° 0 mm 4 mps 747 mmHg 37%
    16:00 +19°C° 0 mm 3 mps 747 mmHg 37%
    17:00 +19°C° 0 mm 3 mps 747 mmHg 37%
    18:00 +17°C° 0 mm 2 mps 747 mmHg 41%
    19:00 +16°C° 0 mm 1 mps 747 mmHg 45%
    20:00 +14°C° 0 mm 1 mps 747 mmHg 49%
    21:00 +14°C° 0 mm 1 mps 747 mmHg 49%
    22:00 +13°C° 0 mm 1 mps 747 mmHg 50%
    23:00 +13°C° 0 mm 1 mps 747 mmHg 51%

    24 September, Monday

    Time Temperature Precipitation Wind Pressure Humidity
    00:00 +13°C° 0 mm 2 mps 746 mmHg 52%
    01:00 +12°C° 0 mm 2 mps 746 mmHg 53%
    02:00 +11°C° 0 mm 3 mps 745 mmHg 54%
    03:00 +11°C° 0 mm 3 mps 745 mmHg 54%
    04:00 +11°C° 0 mm 4 mps 745 mmHg 54%
    05:00 +11°C° 0 mm 4 mps 745 mmHg 54%
    06:00 +13°C° 0 mm 5 mps 744 mmHg 51%
    07:00 +14°C° 0 mm 7 mps 744 mmHg 49%
    08:00 +15°C° 0 mm 8 mps 744 mmHg 46%
    09:00 +17°C° 0 mm 8 mps 744 mmHg 44%
    10:00 +19°C° 0 mm 9 mps 743 mmHg 42%
    11:00 +22°C° 0 mm 9 mps 743 mmHg 40%
    12:00 +23°C° 0 mm 9 mps 742 mmHg 40%
    13:00 +24°C° 0 mm 9 mps 742 mmHg 39%
    14:00 +26°C° 0 mm 9 mps 741 mmHg 39%
    15:00 +24°C° 0 mm 9 mps 741 mmHg 41%
    16:00 +24°C° 0 mm 9 mps 740 mmHg 44%
    17:00 +23°C° 0 mm 8 mps 740 mmHg 46%
    18:00 +22°C° 0 mm 8 mps 740 mmHg 48%
    19:00 +20°C° 0 mm 8 mps 740 mmHg 51%
    20:00 +18°C° 0 mm 8 mps 740 mmHg 54%
    21:00 +17°C° 0 mm 8 mps 740 mmHg 57%
    22:00 +17°C° 0 mm 7 mps 740 mmHg 60%
    23:00 +16°C° 0 mm 7 mps 739 mmHg 63%
    Show more